Weather History for Tulsa, OK

Change the Weather History Date:

Tuesday, February 25, 2014

  Actual Average Record
Temperature  
Mean Temperature 36 °F 45 °F  
Max Temperature 45 °F 56 °F 82 °F (1917)
Min Temperature 27 °F 34 °F 10 °F (1965)
Degree Days  
Heating Degree Days 29 20  
Month to date heating degree days 702 580  
Since 1 July heating degree days 3213 2853  
Moisture  
Dew Point 18 °F    
Average Humidity 50    
Maximum Humidity 63    
Minimum Humidity 36    
Precipitation  
Precipitation 0.00 in 0.08 in 1.21 in (2013)
Month to date precipitation 0.28 1.61  
Year to date precipitation 0.41 3.27  
Sea Level Pressure  
Sea Level Pressure 30.25 in    
Wind  
Wind Speed 14 mph (North)    
Max Wind Speed 26 mph    
Max Gust Speed 35 mph    
Visibility 10 miles    
Events      
T = Trace of Precipitation, MM = Missing Value Source: NWS Daily Summary

Daily Weather History Graph

Daily Weather History Graph

Search for Another Location

Airport:

Trip Planner

Search our weather history database for the weather conditions in past years. The results will help you decide how hot, cold, wet, or windy it might be!

Date:

Astronomy

Feb. 25, 2014 Rise Set
Actual Time 6:59 AM CST 6:14 PM CST
Civil Twilight 6:33 AM CST 6:40 PM CST
Nautical Twilight 6:03 AM CST 7:10 PM CST
Astronomical Twilight 5:33 AM CST 7:40 PM CST
Moon 3:49 AM CST (2/25) 2:26 PM CST (2/25)
Length of Visible Light 12h 07m
Length of Day
11h 15m
Waning Crescent, 18% of the Moon is Illuminated
Feb 25
Waning Crescent
Mar 1
New
Mar 8
First Quarter
Mar 16
Full
Mar 23
Last Quarter

Hourly Weather History & Observations

Time (CST) Temp. Windchill Dew Point Humidity Pressure Visibility Wind Dir Wind Speed Gust Speed Precip Events Conditions
12:53 AM 45.0 °F 41.2 °F 27.0 °F 49% 30.19 in 10.0 mi North 6.9 mph - N/A   Overcast
1:53 AM 44.1 °F 39.0 °F 27.0 °F 51% 30.19 in 10.0 mi North 9.2 mph - N/A   Overcast
2:53 AM 44.1 °F 38.6 °F 26.1 °F 49% 30.20 in 10.0 mi North 10.4 mph - N/A   Overcast
3:53 AM 39.0 °F 32.8 °F 21.9 °F 50% 30.19 in 10.0 mi NNW 9.2 mph - N/A   Partly Cloudy
4:53 AM 32.0 °F 25.6 °F 19.9 °F 61% 30.21 in 10.0 mi North 6.9 mph - N/A   Clear
5:53 AM 28.9 °F 21.1 °F 18.0 °F 64% 30.22 in 10.0 mi North 8.1 mph - N/A   Clear
6:53 AM 28.9 °F 19.2 °F 17.1 °F 61% 30.23 in 10.0 mi North 11.5 mph - N/A   Partly Cloudy
7:53 AM 30.0 °F 21.1 °F 17.1 °F 59% 30.28 in 10.0 mi North 10.4 mph - N/A   Partly Cloudy
8:53 AM 34.0 °F 23.0 °F 18.0 °F 52% 30.27 in 10.0 mi North 18.4 mph 23.0 mph N/A   Partly Cloudy
9:53 AM 37.0 °F 26.2 °F 17.1 °F 44% 30.26 in 10.0 mi NE 21.9 mph 29.9 mph N/A   Scattered Clouds
10:53 AM 39.9 °F 30.5 °F 17.1 °F 40% 30.26 in 10.0 mi NE 19.6 mph - N/A   Mostly Cloudy
11:53 AM 42.1 °F 34.2 °F 18.0 °F 38% 30.26 in 10.0 mi NNE 16.1 mph - N/A   Mostly Cloudy
12:53 PM 42.1 °F 34.9 °F 17.1 °F 37% 30.24 in 10.0 mi NE 13.8 mph 21.9 mph N/A   Overcast
1:53 PM 42.1 °F 34.9 °F 18.0 °F 38% 30.21 in 10.0 mi NNE 13.8 mph 24.2 mph N/A   Overcast
2:53 PM 43.0 °F 36.8 °F 18.0 °F 37% 30.21 in 10.0 mi North 11.5 mph - N/A   Overcast
3:53 PM 42.1 °F 34.2 °F 18.0 °F 38% 30.20 in 10.0 mi NNE 16.1 mph 21.9 mph N/A   Overcast
4:53 PM 41.0 °F 33.5 °F 17.1 °F 38% 30.22 in 10.0 mi North 13.8 mph 20.7 mph N/A   Overcast
5:53 PM 39.0 °F 31.4 °F 16.0 °F 39% 30.23 in 10.0 mi NNE 12.7 mph 21.9 mph N/A   Overcast
6:53 PM 37.0 °F 27.4 °F 16.0 °F 42% 30.25 in 10.0 mi NNE 17.3 mph 25.3 mph N/A   Overcast
7:53 PM 34.0 °F 23.0 °F 16.0 °F 48% 30.28 in 10.0 mi North 18.4 mph 28.8 mph N/A   Overcast
8:53 PM 32.0 °F 20.5 °F 17.1 °F 54% 30.30 in 10.0 mi North 18.4 mph 28.8 mph N/A   Overcast
9:53 PM 30.9 °F 19.1 °F 16.0 °F 54% 30.34 in 10.0 mi NNE 18.4 mph 28.8 mph N/A   Overcast
10:53 PM 28.9 °F 16.1 °F 14.0 °F 54% 30.37 in 10.0 mi North 19.6 mph 28.8 mph N/A   Overcast
11:53 PM 27.0 °F 13.2 °F 10.9 °F 51% 30.40 in 10.0 mi North 20.7 mph 31.1 mph N/A   Overcast